Location: Plainartige
(45.6866°N, 1.7993°E)
Time: 06:27:10
(UTC+00:00)

CSL-04 Debris - Pass Details

Date: 03 March 2021
Orbit: 827 x 848 km, 98.9° (Epoch: 10 April)

Event Time Altitude Azimuth Distance (km) Brightness Sun altitude
Rises 18:23:09 0° 148° (SSE) 3,372 7.0 -7.9°
Reaches altitude 10° 18:25:33 10° 144° (SE) 2,446 6.3 -8.3°
Maximum altitude 18:30:47 52° 69° (ENE) 1,042 4.4 -9.2°
Drops below altitude 10° 18:36:05 10° 355° (N) 2,475 6.7 -10.1°
Sets 18:38:30 0° 350° (N) 3,417 7.5 -10.6°
